Miscellaneous Local Product
Issued by NWS North Platte, NE

Home | Current Version | Previous Version | Graphics & Text | Print | Product List | Glossary On
Versions: 1 2 3 4 5 6 7 8 9 10 11 12 13 14 15 16 17 18 19 20 21 22 23 24 25 26 27 28 29 30 31 32 33 34 35 36 37 38 39 40 41 42 43 44 45 46 47 48 49 50
000
AXUS43 KLBF 230410
MISLBF


WESTERN AND NORTH CENTRAL NEBRASKA HOURLY WEATHER ROUNDUP
NATIONAL WEATHER SERVICE NORTH PLATTE NE
1000 PM CST SAT NOV 22 2014

***STATIONS NOT REPORTING VARIABLES SUCH AS SKY/WEATHER OR
PRESSURE ARE PROVIDED BY THE NEBRASKA DEPARTMENT OF
ROADS...RAWS...AND APRS NETWORKS...AND ARE NOT UNDER
NATIONAL WEATHER SERVICE QUALITY CONTROL***

...OBSERVATIONS IN AND NEAR THE EASTERN PANHANDLE OF NEBRASKA...

CITY           SKY/WX    TMP DP  RH WIND       PRES   REMARKS
PINE RIDGE     MOCLDY    40  31  70 SW3       29.45F
CHADRON        PTCLDY    40  31  70 CALM      29.45F
ALLIANCE       MOCLDY    39  29  67 SW9       29.48F WCI  33
SIDNEY         CLOUDY    35  23  61 W12       29.53S WCI  27
WHITECLAY        N/A     35  27  72 SE3         N/A
LISCO            N/A     38  29  70 NW3         N/A
BIG SPRINGS      N/A     45  29  54 CALM        N/A
LEWELLEN         N/A     16  -4  41 CALM        N/A
$$

...OBSERVATIONS IN NORTH CENTRAL NEBRASKA...

CITY           SKY/WX    TMP DP  RH WIND       PRES   REMARKS
VALENTINE      CLOUDY    44  38  79 SW7       29.46F
THEDFORD       LGT RAIN  52  29  41 SW5       29.52S
AINSWORTH      CLOUDY    52  34  49 W12       29.49S
O`NEILL        CLOUDY    49  35  57 SW10      29.48S
ORD            CLOUDY    36  29  75 S5        29.50F WCI  32
BROKEN BOW     CLOUDY    49  32  52 SW10      29.50F
BROWNLEE         N/A     51  42  70 CALM        N/A
BREWSTER         N/A     52  28  39 W15         N/A
COMSTOCK         N/A     49  34  56 S10         N/A
$$

...OBSERVATIONS IN SOUTHWEST NEBRASKA AND FAR NORTHEAST COLORADO...

CITY           SKY/WX    TMP DP  RH WIND       PRES   REMARKS
WRAY           FAIR      48  14  25 N5        29.52R
HOLYOKE        FAIR      43  19  39 E8        29.50F
IMPERIAL       CLOUDY    43  16  33 CALM      29.52F
OGALLALA       CLOUDY    40  24  51 CALM      29.50F
NORTH PLATTE   CLOUDY    38  26  62 NW6       29.51F WCI  33
MCCOOK         MOCLDY    48  22  35 W5        29.51S
LEXINGTON      MOCLDY    51  31  45 S6        29.52S
PAXTON           N/A     38  21  51 CALM        N/A
GOTHENBURG       N/A     48  25  40 W3          N/A
CALLAWAY         N/A     45  31  57 S8          N/A
$$

...SOME WEATHER OBSERVATIONS FROM AROUND THE REGION...

CITY           SKY/WX    TMP DP  RH WIND       PRES   REMARKS
DENVER         CLOUDY    50  25  37 NW12      29.57F
LARAMIE        CLOUDY    31  29  92 SW14G22   29.63S WCI  21
CHEYENNE       PTCLDY    41  25  53 W15       29.60R
SCOTTSBLUFF    PTCLDY    34  26  72 W3        29.51S
RAPID CITY     CLOUDY    42  31  64 NW9       29.43R
PIERRE         CLOUDY    37  31  78 CALM      29.40S
WINNER         CLOUDY    49  32  52 SW6       29.44F
SIOUX FALLS    CLOUDY    43  38  82 S12       29.46S
OMAHA          CLOUDY    54  52  93 SE14      29.59F
KANSAS CITY    CLOUDY    55  51  86 S18G25    29.72S
WICHITA        CLOUDY    54  51  90 S18       29.66F
HAYS           CLOUDY    55  46  71 S25       29.56F
LIBERAL        CLOUDY    52  45  76 S20       29.60F
GOODLAND       CLOUDY    38  22  52 CALM      29.50F
$$



USA.gov is the U.S. government's official web portal to all federal, state and local government web resources and services.